カタログに戻る

ARIANE 44LP DEB

運用中HEO
NORAD 19219·DEBRIS·🇫🇷 France

打ち上げ Jun 15, 1988 から Guiana Space Centre

Loading…

次のパス (今後24時間)

TLE

最新Source: Space-Track

元期: Sep 13, 2026, 21:42 UTC

1 19219U 88051E   26256.90482117  .00002990  00000-0  10978-2 0  9994
2 19219  10.0072 110.4136 6755457  73.0725 346.7894  2.95071529360025

AllMySatでARIANE 44LP DEBをリアルタイム追跡

Download on the App Store